KR8N Weather Reports


time (UTC)temp
C
wind
direction
speed
KPH
gust
KPH
rain 1hr
cm
rain 24hr
cm
rain mn
cm
humidity
%
barometer
mb
20260504070148 7 94 0.0 0.0 0.00 0.00 0.00 71 1018.4
20260504060109 7 77 0.0 0.0 0.00 0.00 0.00 65 1019.1
20260504050537 8 83 0.0 0.0 0.00 0.00 0.00 65 1019.3
20260504045531 8 83 0.0 0.0 0.00 0.00 0.00 64 1019.3
20260504045026 8 83 0.0 0.0 0.00 0.00 0.00 65 1019.2
20260504044524 8 117 1.6 1.6 0.00 0.00 0.00 62 1019.3
20260504044021 8 106 0.0 0.0 0.00 0.00 0.00 60 1019.1
20260504043518 8 56 1.6 1.6 0.00 0.00 0.00 67 1019.1
20260504043015 8 57 0.0 0.0 0.00 0.00 0.00 65 1019.4
20260504042512 8 57 0.0 0.0 0.00 0.00 0.00 66 1019.2
20260504042009 8 57 0.0 0.0 0.00 0.00 0.00 63 1019.1
20260504041505 8 57 0.0 0.0 0.00 0.00 0.00 63 1019.1
20260504041001 8 57 0.0 0.0 0.00 0.00 0.00 63 1019.0
20260504040459 8 57 0.0 0.0 0.00 0.00 0.00 64 1019.2
20260504035954 8 57 0.0 0.0 0.00 0.00 0.00 64 1019.2
20260504035452 8 57 0.0 0.0 0.00 0.00 0.00 61 1019.3
20260504034948 8 57 0.0 0.0 0.00 0.00 0.00 62 1019.1
20260504034446 8 57 0.0 0.0 0.00 0.00 0.00 62 1019.2
20260504033943 8 57 0.0 0.0 0.00 0.00 0.00 61 1019.0
20260504033441 8 57 0.0 0.0 0.00 0.00 0.00 63 1019.0
20260504032938 8 57 0.0 0.0 0.00 0.00 0.00 64 1019.1
20260504032434 8 57 0.0 0.0 0.00 0.00 0.00 62 1019.0
20260504031931 8 57 0.0 0.0 0.00 0.00 0.00 62 1019.2
20260504031428 8 57 0.0 0.0 0.00 0.00 0.00 63 1019.1
20260504030925 8 56 0.0 0.0 0.00 0.00 0.00 64 1018.9
20260504030422 8 49 1.6 1.6 0.00 0.00 0.00 65 1018.8
20260504025918 8 91 0.0 0.0 0.00 0.00 0.00 63 1018.7
20260504025415 8 91 0.0 0.0 0.00 0.00 0.00 63 1019.1
20260504024912 8 91 0.0 0.0 0.00 0.00 0.00 64 1018.8
20260504024409 8 92 1.6 1.6 0.00 0.00 0.00 59 1018.9
20260504023906 7 89 0.0 0.0 0.00 0.00 0.00 63 1018.9
20260504023402 8 80 0.0 0.0 0.00 0.00 0.00 61 1019.0
20260504022857 8 80 0.0 0.0 0.00 0.00 0.00 59 1019.1
20260504022354 7 80 0.0 0.0 0.00 0.00 0.00 58 1018.9
20260504021851 7 80 0.0 0.0 0.00 0.00 0.00 57 1018.9
20260504021348 7 80 0.0 0.0 0.00 0.00 0.00 59 1019.1
20260504020845 7 80 0.0 0.0 0.00 0.00 0.00 58 1019.0
20260504020342 7 80 0.0 0.0 0.00 0.00 0.00 59 1018.8
20260504015838 7 80 0.0 0.0 0.00 0.00 0.00 60 1019.2
20260504015334 6 80 0.0 0.0 0.00 0.00 0.00 58 1019.0
20260504014831 6 80 0.0 0.0 0.00 0.00 0.00 60 1019.0
20260504014326 7 80 0.0 0.0 0.00 0.00 0.00 63 1018.8
20260504013825 7 80 0.0 0.0 0.00 0.00 0.00 58 1019.0
20260504013322 7 80 0.0 0.0 0.00 0.00 0.00 55 1018.7
20260504012819 7 80 0.0 0.0 0.00 0.00 0.00 51 1018.6
20260504012317 8 80 0.0 0.0 0.00 0.00 0.00 50 1018.7
20260504011814 8 80 0.0 0.0 0.00 0.00 0.00 50 1018.7
20260504011310 8 80 0.0 0.0 0.00 0.00 0.00 49 1018.5
20260504010806 8 80 0.0 0.0 0.00 0.00 0.00 49 1018.8
20260504010301 8 80 0.0 0.0 0.00 0.00 0.00 47 1018.6
20260504005759 8 80 0.0 0.0 0.00 0.00 0.00 49 1018.5
20260504005255 8 80 0.0 0.0 0.00 0.00 0.00 48 1018.6
20260504004753 8 80 0.0 0.0 0.00 0.00 0.00 49 1018.4
20260504004250 9 80 0.0 0.0 0.00 0.00 0.00 47 1018.4
20260504003747 9 80 0.0 0.0 0.00 0.00 0.00 45 1018.4
20260504003244 10 80 0.0 0.0 0.00 0.00 0.00 43 1018.4
20260504002740 10 80 0.0 0.0 0.00 0.00 0.00 42 1018.5
20260504002237 10 80 0.0 0.0 0.00 0.00 0.00 40 1018.2
20260504001735 10 80 0.0 0.0 0.00 0.00 0.00 40 1018.4
20260504001232 11 80 0.0 0.0 0.00 0.00 0.00 39 1018.3
20260504000728 11 79 0.0 0.0 0.00 0.00 0.00 38 1018.4
20260504000226 12 79 0.0 0.0 0.00 0.00 0.00 37 1018.2
20260503235724 12 74 0.0 0.0 0.00 0.00 0.00 36 1018.5
20260503235221 12 15 3.2 3.2 0.00 0.00 0.00 34 1018.4
20260503234718 12 73 0.0 0.0 0.00 0.00 0.00 35 1018.5
20260503234216 13 31 1.6 1.6 0.00 0.00 0.00 33 1018.5
20260503233713 13 63 1.6 1.6 0.00 0.00 0.00 32 1018.3
20260503233209 13 19 1.6 1.6 0.00 0.00 0.00 33 1018.4
20260503232706 14 347 1.6 1.6 0.00 0.00 0.00 30 1018.5
20260503232203 14 306 8.0 9.7 0.00 0.00 0.00 30 1018.6
20260503231701 14 80 0.0 0.0 0.00 0.00 0.00 31 1018.6
20260503231157 14 36 1.6 1.6 0.00 0.00 0.00 31 1018.4
20260503230654 14 271 4.8 4.8 0.00 0.00 0.00 30 1018.6
20260503230151 15 58 0.0 0.0 0.00 0.00 0.00 30 1018.2
20260503225648 15 114 1.6 1.6 0.00 0.00 0.00 32 1018.5
20260503225148 15 59 1.6 1.6 0.00 0.00 0.00 29 1018.6
20260503224646 15 310 3.2 4.8 0.00 0.00 0.00 30 1018.8
20260503224143 15 132 3.2 3.2 0.00 0.00 0.00 30 1018.5
20260503223641 15 319 8.0 9.7 0.00 0.00 0.00 29 1018.9
20260503223138 14 101 1.6 1.6 0.00 0.00 0.00 32 1018.9
20260503222635 14 312 4.8 4.8 0.00 0.00 0.00 29 1018.8
20260503222132 14 272 1.6 3.2 0.00 0.00 0.00 30 1018.6
20260503221631 14 295 8.0 12.9 0.00 0.00 0.00 28 1018.9
20260503221128 15 288 11.3 14.5 0.00 0.00 0.00 28 1018.7
20260503220625 15 314 11.3 12.9 0.00 0.00 0.00 28 1018.9
20260503220121 15 127 3.2 3.2 0.00 0.00 0.00 31 1018.7
20260503215618 15 286 1.6 3.2 0.00 0.00 0.00 31 1018.7
20260503215115 15 128 1.6 1.6 0.00 0.00 0.00 27 1018.7
20260503214614 15 339 1.6 3.2 0.00 0.00 0.00 28 1018.7
20260503214109 15 330 3.2 4.8 0.00 0.00 0.00 27 1018.8
20260503213609 15 150 3.2 3.2 0.00 0.00 0.00 26 1018.7
20260503213104 15 257 4.8 6.4 0.00 0.00 0.00 29 1019.0
20260503212602 15 268 6.4 9.7 0.00 0.00 0.00 29 1018.6
20260503212059 15 304 3.2 3.2 0.00 0.00 0.00 30 1018.7
20260503211556 15 207 6.4 6.4 0.00 0.00 0.00 29 1018.8
20260503211051 15 12 3.2 3.2 0.00 0.00 0.00 29 1018.9
20260503210549 15 343 1.6 1.6 0.00 0.00 0.00 31 1018.8
20260503210044 15 306 3.2 3.2 0.00 0.00 0.00 30 1018.8
20260503205541 14 107 1.6 1.6 0.00 0.00 0.00 31 1019.1
20260503205037 15 169 3.2 4.8 0.00 0.00 0.00 32 1019.2
20260503204534 15 142 3.2 3.2 0.00 0.00 0.00 29 1019.0
20260503204031 15 27 1.6 1.6 0.00 0.00 0.00 32 1019.0
20260503203529 15 72 1.6 1.6 0.00 0.00 0.00 33 1019.2
20260503203020 15 248 3.2 3.2 0.00 0.00 0.00 38 1019.1
20260503202518 14 100 1.6 1.6 0.00 0.00 0.00 32 1019.2
20260503202016 15 69 0.0 0.0 0.00 0.00 0.00 31 1019.3
20260503201514 15 289 6.4 11.3 0.00 0.00 0.00 34 1019.5
20260503201011 14 81 0.0 1.6 0.00 0.00 0.00 37 1019.4
20260503200507 14 356 6.4 9.7 0.00 0.00 0.00 30 1019.6
20260503200004 15 283 8.0 9.7 0.00 0.00 0.00 31 1019.9
20260503195500 13 138 1.6 1.6 0.00 0.00 0.00 29 1020.0
20260503194957 14 116 3.2 4.8 0.00 0.00 0.00 35 1020.0
20260503194454 13 287 4.8 4.8 0.00 0.00 0.00 30 1020.2
20260503193950 13 283 1.6 1.6 0.00 0.00 0.00 30 1020.1
20260503193446 14 41 4.8 3.2 0.00 0.00 0.00 31 1020.1
20260503192941 15 326 6.4 11.3 0.00 0.00 0.00 31 1020.2
20260503192438 15 119 1.6 1.6 0.00 0.00 0.00 32 1020.2
20260503191933 14 115 3.2 3.2 0.00 0.00 0.00 32 1020.3
20260503191431 14 86 1.6 3.2 0.00 0.00 0.00 33 1020.5
20260503190927 13 259 1.6 3.2 0.00 0.00 0.00 36 1020.7
20260503190425 13 320 6.4 6.4 0.00 0.00 0.00 34 1020.7
20260503185922 13 287 4.8 6.4 0.00 0.00 0.00 36 1020.8
20260503185418 13 294 4.8 4.8 0.00 0.00 0.00 32 1021.0
20260503184917 13 189 3.2 4.8 0.00 0.00 0.00 38 1020.8
20260503184414 13 71 6.4 6.4 0.00 0.00 0.00 37 1021.1
20260503183910 12 99 4.8 6.4 0.00 0.00 0.00 35 1021.1
20260503183407 12 288 4.8 4.8 0.00 0.00 0.00 35 1021.1
20260503182904 12 296 6.4 6.4 0.00 0.00 0.00 35 1021.1
20260503182403 12 296 4.8 6.4 0.00 0.00 0.00 39 1021.3
20260503181859 13 276 8.0 9.7 0.00 0.00 0.00 31 1021.1
20260503181356 12 22 1.6 1.6 0.00 0.00 0.00 35 1021.3
20260503180853 11 309 3.2 3.2 0.00 0.00 0.00 36 1021.4
20260503180351 11 297 8.0 11.3 0.00 0.00 0.00 33 1021.4
20260503175847 11 275 4.8 4.8 0.00 0.00 0.00 37 1021.3
20260503175345 12 295 3.2 1.6 0.00 0.00 0.00 38 1021.4
20260503174840 12 252 3.2 3.2 0.00 0.00 0.00 41 1021.4
20260503174339 12 66 3.2 6.4 0.00 0.00 0.00 36 1021.7
20260503173834 11 163 3.2 3.2 0.00 0.00 0.00 37 1021.7
20260503173331 11 303 6.4 9.7 0.00 0.00 0.00 35 1021.9
20260503172827 11 72 3.2 4.8 0.00 0.00 0.00 34 1021.8
20260503172325 12 33 6.4 11.3 0.00 0.00 0.00 35 1022.0
20260503171821 12 52 1.6 1.6 0.00 0.00 0.00 41 1021.9
20260503171318 11 72 1.6 1.6 0.00 0.00 0.00 38 1021.9
20260503170815 11 24 1.6 3.2 0.00 0.00 0.00 38 1022.2
20260503170312 11 253 4.8 6.4 0.00 0.00 0.00 40 1022.1
20260503150704 8 355 3.2 3.2 0.00 0.00 0.00 43 1023.0
20260503150200 8 15 3.2 3.2 0.00 0.00 0.00 42 1022.8
20260503140125 7 302 4.8 6.4 0.00 0.00 0.00 43 1023.0
20260503131054 6 284 4.8 4.8 0.00 0.00 0.00 53 1022.8
20260503130551 6 292 4.8 4.8 0.00 0.00 0.00 53 1022.4
20260503110442 -1 57 0.0 0.0 0.00 0.00 0.00 94 1021.3
20260503090332 -1 56 0.0 0.0 0.00 0.00 0.00 92 1020.4
20260503081300 0 56 0.0 0.0 0.00 0.00 0.00 89 1020.1
20260503080756 0 57 0.0 0.0 0.00 0.00 0.00 88 1020.0
20260503080254 0 56 0.0 0.0 0.00 0.00 0.00 87 1019.9
20260503072730 1 55 0.0 0.0 0.00 0.00 0.00 80 1019.7